Voltar ao catálogo

HULIANWANG DIGUI-107

AtivoComunicaçõesLEO
NORAD 66917·PAYLOAD·🇨🇳 China

Lançado Dec 6, 2025 de Wenchang Space Launch Site

Loading…

Próximas Passagens (próximas 24 horas)

TLE

AtualizadoSource: Space-Track

Época: Sep 14, 2026, 13:08 UTC

1 66917U 25285C   26257.54759833 -.00000082  00000-0  90318-4 0  9993
2 66917  50.0020 185.5340 0000195 250.8296 109.2555 13.29327286 37944

Acompanhe HULIANWANG DIGUI-107 em tempo real com AllMySat

Download on the App Store